Weather History for KDAY - November, 2012

Change the Weather History Date:

Monday, November 26, 2012

  Actual Average Record
Temperature  
Mean Temperature 40 °F 38 °F  
Max Temperature 49 °F 46 °F 70 °F (1896)
Min Temperature 30 °F 31 °F 8 °F (1930)
Degree Days  
Heating Degree Days 25 27  
Month to date heating degree days 599 552  
Since 1 July heating degree days 1099 999  
Cooling Degree Days 0 0  
Month to date cooling degree days 0 0  
Year to date cooling degree days 1264 891  
Moisture  
Dew Point 28 °F    
Average Humidity 64    
Maximum Humidity 85    
Minimum Humidity 42    
Precipitation  
Precipitation 0.00 in 0.11 in 1.48 in (1986)
Month to date precipitation 0.79 2.94  
Year to date precipitation 28.82 37.48  
Snow  
Snow 0.00 in 0.00 in 2.30 in (1950)
Month to date snowfall 0.2 0.4  
Since 1 July snowfall 0.9 0.8  
Since 1 September snowfall 0.9 0.8  
Snow Depth 0.00 in    
Sea Level Pressure  
Sea Level Pressure 30.17 in    
Wind  
Wind Speed 4 mph (NNE)    
Max Wind Speed 16 mph    
Max Gust Speed 21 mph    
Visibility 10 miles    
Events      
T = Trace of Precipitation, MM = Missing Value Source: NWS Daily Summary

Daily Weather History Graph

Daily Weather History Graph

Search for Another Location

Airport or City:

Trip Planner

Search our weather history database for the weather conditions in past years. The results will help you decide how hot, cold, wet, or windy it might be!

Date:

Astronomy

Nov. 26, 2012 Rise Set
Actual Time 7:34 AM EST 5:13 PM EST
Civil Twilight 7:04 AM EST 5:43 PM EST
Nautical Twilight 6:31 AM EST 6:16 PM EST
Astronomical Twilight 5:59 AM EST 6:49 PM EST
Moon 4:05 PM EST (11/26) 5:44 AM EST (11/26)
Length of Visible Light 10h 38m
Length of Day
9h 39m
Waxing Gibbous, 97% of the Moon is Illuminated
Nov 26
Waxing Gibbous
Nov 28
Full
Dec 6
Last Quarter
Dec 13
New
Dec 20
First Quarter

Hourly Weather History & Observations

Time (EST) Temp. Windchill Dew Point Humidity Pressure Visibility Wind Dir Wind Speed Gust Speed Precip Events Conditions
12:56 AM 37.9 °F 34.4 °F 30.0 °F 73% 30.06 in 10.0 mi SW 4.6 mph - N/A   Overcast
1:56 AM 37.9 °F - 30.0 °F 73% 30.06 in 10.0 mi Calm Calm - N/A   Overcast
2:56 AM 37.9 °F 35.5 °F 30.0 °F 73% 30.08 in 10.0 mi NNW 3.5 mph - N/A   Overcast
3:56 AM 36.0 °F - 30.0 °F 79% 30.09 in 10.0 mi Calm Calm - N/A   Overcast
4:56 AM 34.0 °F - 28.9 °F 82% 30.12 in 10.0 mi Calm Calm - N/A   Mostly Cloudy
5:56 AM 32.0 °F - 26.1 °F 79% 30.14 in 10.0 mi Calm Calm - N/A   Partly Cloudy
6:56 AM 30.0 °F - 26.1 °F 85% 30.16 in 9.0 mi Calm Calm - N/A   Clear
7:56 AM 30.9 °F - 27.0 °F 85% 30.18 in 8.0 mi Calm Calm - N/A   Scattered Clouds
8:56 AM 36.0 °F - 28.9 °F 76% 30.20 in 7.0 mi Calm Calm - N/A   Partly Cloudy
9:56 AM 39.9 °F 37.8 °F 28.0 °F 63% 30.21 in 9.0 mi ESE 3.5 mph - N/A   Partly Cloudy
10:56 AM 42.1 °F 40.2 °F 28.0 °F 58% 30.21 in 10.0 mi NE 3.5 mph - N/A   Partly Cloudy
11:56 AM 43.0 °F - 28.0 °F 56% 30.20 in 10.0 mi Calm Calm - N/A   Partly Cloudy
12:56 PM 46.9 °F - 26.1 °F 44% 30.18 in 10.0 mi Calm Calm - N/A   Partly Cloudy
1:56 PM 48.0 °F - 26.1 °F 42% 30.18 in 10.0 mi Calm Calm - N/A   Scattered Clouds
2:56 PM 48.9 °F - 26.1 °F 41% 30.16 in 10.0 mi Calm Calm - N/A   Scattered Clouds
3:56 PM 46.0 °F 43.9 °F 26.1 °F 46% 30.17 in 10.0 mi NE 4.6 mph - N/A   Mostly Cloudy
4:56 PM 45.0 °F 43.5 °F 28.0 °F 52% 30.18 in 10.0 mi NNE 3.5 mph - N/A   Mostly Cloudy
5:56 PM 44.1 °F 42.5 °F 26.1 °F 49% 30.19 in 10.0 mi North 3.5 mph - N/A   Overcast
6:56 PM 42.1 °F 37.1 °F 28.0 °F 58% 30.21 in 10.0 mi North 8.1 mph - N/A   Overcast
7:56 PM 39.9 °F 34.5 °F 28.9 °F 65% 30.23 in 10.0 mi NNE 8.1 mph - N/A   Overcast
8:56 PM 39.0 °F 31.8 °F 30.0 °F 70% 30.23 in 10.0 mi North 11.5 mph - N/A   Overcast
9:56 PM 37.9 °F 30.5 °F 28.9 °F 70% 30.26 in 10.0 mi North 11.5 mph - N/A   Overcast
10:56 PM 37.0 °F 28.9 °F 28.9 °F 73% 30.27 in 10.0 mi North 12.7 mph - N/A   Overcast
11:56 PM 35.1 °F 25.9 °F 28.9 °F 78% 30.28 in 8.0 mi North 13.8 mph - N/A   Overcast